THORAD DELTA 1 DEB, 8164

Orbit data source: Space-Track

THORAD DELTA 1 DEB, 8164 is space debris in SSO originally from a launch on Fri, 15 Nov 1974 UTC launched from the Air Force Western Test Range (AFWTR). Debris objects in space refer to the collection of defunct objects orbiting the Earth. Examples of debris include non-operational satellites, rocket bodies, and fragments generated from explosions, collisions, or faulty payload assembly.

Loading next visibility...
Identifier
8164, 1974-089AE
Orbit
SSO
Country
Flag of USUS
Related business
Manufacturer
Unknown
Mission
Spacecraft
Bus & Motor
Unknown
Mass
Unknown
Launch date (UTC)
1974-11-15 (51 years ago)
Launch vehicle
Unknown
Launch site
Air Force Western Test Range (AFWTR)
Object type
Payload
Rocket body
Debris
Shape & HBR
Unknown shape, 0.3 m
Radar Cross Section
Medium (>0.1 m² and <1 m²)

Expand to show TLE details & history
Last TLE update: 7 hours ago

TLE from 7 hours ago
0 THORAD DELTA 1 DEB
1 08164U 74089AE  26119.59638553 -.00000044  00000-0 -33103-4 0  9994
2 08164 101.6296 241.5069 0121156  82.8591 290.0469 12.28973072308644
Epoch: 2026-04-29T14:18Z
TLE epoch observation values (Epoch: 2026-04-29T14:18:47.709Z)
Latitude
11.31322°
Longitude
166.9048°
Altitude
1,523.584 km
Speed
7.119 km/s
True Right ascension
15h 56m 38s
True Declination
11° 15' 13"
Sunlit
Object was in full shadow at epoch
Visualization orbit readout
Latitude
Unknown
Longitude
Unknown
Altitude
Unknown
Speed
Unknown
Apparent Right ascension
Unknown
Apparent Declination
Unknown
Sunlit
N/A
Visualization observer readout
Local Sidereal Time
04:56:58
Azimuth
Unknown
Elevation
Unknown
Doppler factor
Unknown
Orbital elements
Apogee altitude
1,647.333 km
Perigee altitude
1,455.194 km
Semi-major axis
7,929.401 km
Eccentricity
0.01212
Inclination
101.6296°
RAAN
241.5069°
Arg. of periapsis
82.8591°
True anomaly
288.73598°
Mean anomaly
290.0469°
Eccentric anomaly
289.39211°
Mean motion
3.07385 °/min
Orbital period
117.12 mins
BSTAR
-0.000033103
Loading maneuver chart data...
Computing Atmospheric mass density...

Documentation

Showing up to 5 results
|